Location: Buckeye Ditch
(40.9104°N, 122.9517°W)
Time: 01:07:10
(UTC+00:00)

SR - Pass Details

Date: 19 May 2025
Orbit: 570 x 855 km, 66.7° (Epoch: 11 June)

Event Time Altitude Azimuth Distance (km) Brightness Sun altitude
Exits shadow 07:22:13 20° 80° (E) 1,896 ? -28.3°
Drops below altitude 10° 07:24:47 10° 57° (ENE) 2,490 ? -28.4°
Sets 07:27:43 0° 43° (NE) 3,422 ? -28.5°
